Flag for Nicaragua Weather past 2 weeks in Masaya, Nicaragua

Now
81 °F

Passing clouds.


Feels Like: 84 °F
Forecast: 75 / 93 °F
Wind: 5 mph from East

Location: Managua A. C. Sandino


UV Index: 10 (Very high)

Visibility: 6 mi


Pressure: 29.83 "Hg

Humidity: 70%

Dew point: 70 °F

Location of MasayaLocation

Historic Weather in Masaya

°F

Masaya temperature yesterday

Maximum temperature yesterday: 97 °F (at 1:00 PM)
Minimum temperature yesterday: 77 °F (at 5:00 AM)
Average temperature yesterday: 86 °F

Past Weeks' High & Low Weather Summary

 TemperatureHumidityPressure
High99 °F (Apr 8, 3:00 PM)88% (Apr 13, 6:00 AM)29.95 "Hg (Apr 13, 6:00 AM)
Low68 °F (Apr 13, 6:00 AM)27% (Apr 12, 3:00 PM)29.68 "Hg (Apr 15, 3:00 PM)
Average87 °F55%29.82 "Hg
* Reported Apr 8 4:00 AM — Apr 23 4:00 AM, Masaya, Weather by CustomWeather, © 2014

Note: Actual official high and low records may vary slightly from our data, if they occured in-between our weather recording intervals... More about our weather records

Advertising

Historic Weather Conditions — Data for Previous 24 hours

 ConditionsComfort  
Time TempWeatherWind HumidityBarometerVisibility
4:00 AM
Apr 23
81 °FPassing clouds.5 mph70%29.83 "Hg6 mi
3:00 AM81 °FPassing clouds.12 mph70%29.83 "Hg6 mi
2:00 AM81 °FPassing clouds.7 mph74%29.83 "Hg6 mi
1:00 AM82 °FClear.9 mph74%29.83 "Hg10 mi
12:00 AM82 °FClear.12 mph79%29.86 "Hg10 mi
11:00 PM
Apr 22
82 °FClear.12 mph74%29.86 "Hg10 mi
10:00 PM82 °FClear.14 mph74%29.83 "Hg10 mi
9:00 PM82 °FClear.14 mph74%29.83 "Hg10 mi
8:00 PM84 °FClear.12 mph70%29.80 "Hg10 mi
7:00 PM86 °FPassing clouds.14 mph59%29.74 "HgN/A
6:00 PM88 °FPassing clouds.14 mph55%29.74 "Hg6 mi
5:00 PM93 °FPassing clouds.18 mph44%29.74 "Hg6 mi
4:00 PM93 °FPassing clouds.16 mph44%29.74 "Hg6 mi
3:00 PM97 °FPassing clouds.14 mph37%29.71 "Hg6 mi
2:00 PM97 °FPassing clouds.16 mph32%29.74 "Hg6 mi
1:00 PM97 °FPassing clouds.18 mph32%29.77 "HgN/A
12:00 PM95 °FPassing clouds.12 mph36%29.80 "HgN/A
11:00 AM91 °FPassing clouds.9 mph44%29.83 "HgN/A
10:00 AM88 °FPassing clouds.12 mph52%29.86 "HgN/A
9:00 AM86 °FPassing clouds.5 mph55%29.89 "HgN/A
8:00 AM82 °FScattered clouds.9 mph66%29.89 "HgN/A
7:00 AM81 °FScattered clouds.7 mph70%29.86 "HgN/A
Weather by CustomWeather, © 2014

See weather overview